Location: M.A.R.S.Observatory
(35.4031°N, 81.5481°W)
Time: 10:07:45
(UTC-05:00)

N. Korean satellite - Visible Passes

Search period start: 27 November 2021 00:00
Search period end: 07 December 2021 00:00
Orbit: 447 x 495 km, 97.3° (Epoch: 26 November)

Date Brightness Start Highest point End Pass type
(mag) Time Alt. Az. Time Alt. Az. Time Alt. Az.
27 Nov 9.5 04:50:52 10° NE 04:53:03 16° E 04:55:13 10° SE visible
27 Nov 7.7 06:23:36 10° NNW 06:26:10 20° WNW 06:28:42 10° WSW visible
28 Nov 6.5 05:54:34 10° N 05:57:51 51° WNW 06:01:08 10° SSW visible
28 Nov 10.0 18:00:17 10° WSW 18:01:56 13° W 18:03:36 10° WNW visible
29 Nov 7.1 05:26:07 10° NNE 05:29:26 54° E 05:32:43 10° S visible
30 Nov 9.1 04:58:17 10° NE 05:00:53 20° E 05:03:28 10° SE visible
30 Nov 8.0 06:31:46 10° NNW 06:33:54 16° WNW 06:36:01 10° WSW visible
01 Dec 6.8 06:02:25 10° N 06:05:36 38° WNW 06:08:44 10° SW visible
02 Dec 6.5 05:33:48 10° NNE 05:37:11 73° E 05:40:32 10° S visible
02 Dec 9.4 17:38:14 10° SSW 17:41:09 23° W 17:44:01 10° NW visible
03 Dec 8.6 05:05:45 10° NE 05:08:38 26° E 05:11:31 10° SSE visible
03 Dec 8.2 06:40:01 10° NW 06:41:33 13° WNW 06:43:06 10° W visible
04 Dec 9.9 04:39:11 10° ENE 04:40:00 11° E 04:40:49 10° ESE visible
04 Dec 7.2 06:10:16 10° NNW 06:13:15 30° WNW 06:16:14 10° SW visible
05 Dec 6.2 05:41:27 10° N 05:44:51 83° W 05:48:13 10° SSW visible
05 Dec 9.6 17:46:20 10° SW 17:48:51 18° W 17:51:22 10° NW visible
06 Dec 8.1 05:13:12 10° NNE 05:16:19 34° E 05:19:25 10° SSE visible
